GW1238 Weather Reports


time (UTC)temp
F
wind
direction
speed
knots
gust
knots
rain 1hr
in
rain 24hr
in
rain mn
in
humidity
%
barometer
mb
20260906124544 79 231 0.9 0.9 0.00 0.00 0.00 87 1016.5
20260906124039 78 59 0.0 1.7 0.00 0.00 0.00 89 1016.4
20260906123538 77 280 0.9 1.7 0.00 0.00 0.00 91 1016.4
20260906123033 76 77 0.0 0.9 0.00 0.00 0.00 93 1016.3
20260906122526 76 2 0.9 1.7 0.00 0.00 0.00 94 1016.6
20260906122023 76 133 0.0 0.9 0.00 0.00 0.00 94 1016.3
20260906121519 74 97 0.0 0.9 0.00 0.00 0.00 95 1016.3
20260906121016 74 31 0.0 0.9 0.00 0.00 0.00 95 1016.1
20260906120515 74 348 0.9 0.9 0.00 0.00 0.00 95 1016.1
20260906120014 74 25 0.0 1.7 0.00 0.00 0.00 95 1016.2
20260906115508 74 335 0.9 1.7 0.00 0.00 0.00 95 1016.1
20260906115008 74 354 0.9 1.7 0.00 0.00 0.00 95 1016.2
20260906114503 74 339 1.7 1.7 0.00 0.00 0.00 95 1016.0
20260906113959 74 348 0.9 1.7 0.00 0.00 0.00 95 1016.0
20260906113457 74 326 1.7 2.6 0.00 0.00 0.00 94 1015.9
20260906112953 74 353 0.9 0.9 0.00 0.00 0.00 94 1015.8
20260906112448 74 31 0.9 0.9 0.00 0.00 0.00 94 1015.6
20260906111944 74 344 0.9 1.7 0.00 0.00 0.00 94 1015.7
20260906111443 75 16 0.9 1.7 0.00 0.00 0.00 94 1015.7
20260906110938 75 352 0.9 1.7 0.00 0.00 0.00 94 1015.6
20260906110433 75 341 0.9 1.7 0.00 0.00 0.00 93 1015.6
20260906105932 75 340 0.9 1.7 0.00 0.00 0.00 93 1015.3
20260906105428 75 341 0.9 1.7 0.00 0.00 0.00 92 1015.4
20260906104924 76 320 0.9 1.7 0.00 0.00 0.00 92 1015.0
20260906104422 76 338 0.9 1.7 0.00 0.00 0.00 91 1015.1
20260906103921 76 345 1.7 1.7 0.00 0.00 0.00 92 1015.3
20260906103419 76 352 0.9 2.6 0.00 0.00 0.00 91 1015.2
20260906102915 76 312 0.9 0.9 0.00 0.00 0.00 90 1015.3
20260906102414 76 88 0.9 0.9 0.00 0.00 0.00 90 1015.3
20260906101909 76 350 0.9 1.7 0.00 0.00 0.00 91 1015.3
20260906101404 76 7 0.9 1.7 0.00 0.00 0.00 91 1015.1
20260906100900 76 327 0.9 0.9 0.00 0.00 0.00 91 1015.2
20260906100359 76 358 0.0 0.9 0.00 0.00 0.00 89 1015.3
20260906095855 77 4 0.0 0.0 0.00 0.00 0.00 89 1015.3
20260906095350 77 49 0.0 0.0 0.00 0.00 0.00 88 1015.1
20260906094849 77 8 0.0 0.9 0.00 0.00 0.00 88 1015.3
20260906094344 77 336 0.9 1.7 0.00 0.00 0.00 88 1015.4
20260906093841 77 333 1.7 1.7 0.00 0.00 0.00 87 1015.3
20260906093336 77 318 0.9 0.9 0.00 0.00 0.00 86 1015.4
20260906092831 78 162 0.0 0.0 0.00 0.00 0.00 86 1015.5
20260906092331 78 212 0.0 0.9 0.00 0.00 0.00 85 1015.4
20260906091827 78 200 0.0 0.9 0.00 0.00 0.00 85 1015.7
20260906091323 78 140 0.0 0.0 0.00 0.00 0.00 85 1015.6
20260906090819 78 300 0.9 0.9 0.00 0.00 0.00 85 1015.7
20260906090318 78 95 0.0 0.9 0.00 0.00 0.00 84 1015.7
20260906085818 78 303 1.7 2.6 0.00 0.00 0.00 84 1015.6
20260906085311 78 356 0.9 1.7 0.00 0.00 0.00 84 1015.7
20260906084807 78 87 0.0 1.7 0.00 0.00 0.00 84 1015.7
20260906084306 78 113 0.0 1.7 0.00 0.00 0.00 85 1016.0
20260906083800 78 51 0.0 0.9 0.00 0.00 0.00 87 1016.0
20260906083256 77 307 0.9 2.6 0.00 0.00 0.00 88 1016.3
20260906082751 76 114 0.9 2.6 0.00 0.00 0.00 90 1016.1
20260906082246 76 359 0.9 1.7 0.00 0.00 0.00 93 1016.0
20260906081742 76 51 0.0 1.7 0.00 0.00 0.00 94 1016.1
20260906081237 76 12 0.9 1.7 0.00 0.00 0.00 94 1016.0
20260906080734 76 334 1.7 1.7 0.00 0.00 0.00 94 1015.8
20260906080230 76 348 0.9 1.7 0.00 0.00 0.00 94 1016.0
20260906075729 76 20 0.9 1.7 0.00 0.00 0.00 94 1015.9
20260906075224 76 340 0.9 0.9 0.00 0.00 0.00 94 1015.7
20260906074720 76 67 0.0 0.9 0.00 0.00 0.00 94 1015.6
20260906074219 76 330 0.9 1.7 0.00 0.00 0.00 93 1015.4
20260906073719 77 0 0.9 0.9 0.00 0.00 0.00 93 1015.2
20260906073214 76 149 0.0 0.0 0.00 0.00 0.00 93 1015.1
20260906072710 76 119 0.0 0.0 0.00 0.00 0.00 93 1015.1
20260906072205 76 146 0.0 0.0 0.00 0.00 0.00 93 1015.5
20260906071701 76 45 0.9 0.9 0.00 0.00 0.00 93 1015.2
20260906071200 76 29 0.0 0.9 0.00 0.00 0.00 93 1015.2
20260906070657 76 343 1.7 1.7 0.00 0.00 0.00 93 1015.6
20260906070153 76 258 0.0 1.7 0.00 0.00 0.00 93 1015.8
20260906065652 76 356 0.0 2.6 0.00 0.00 0.00 94 1016.1
20260906065148 76 326 1.7 5.2 0.00 0.00 0.00 96 1016.1
20260906064643 76 337 2.6 2.6 0.00 0.00 0.00 96 1015.6
20260906064139 76 331 0.9 1.7 0.00 0.00 0.00 97 1015.7
20260906063639 75 341 1.7 1.7 0.00 0.00 0.00 96 1015.8
20260906063134 75 343 0.9 0.9 0.00 0.00 0.00 96 1015.8
20260906062630 75 6 0.9 1.7 0.00 0.00 0.00 96 1015.8
20260906062129 75 327 0.9 1.7 0.00 0.00 0.00 96 1016.0
20260906061625 75 338 1.7 1.7 0.00 0.00 0.00 96 1016.1
20260906061125 75 336 0.9 1.7 0.00 0.00 0.00 96 1015.9
20260906060621 75 346 0.9 0.9 0.00 0.00 0.00 96 1015.7
20260906060119 75 358 0.0 0.9 0.00 0.00 0.00 96 1015.8
20260906055614 75 338 1.7 2.6 0.00 0.00 0.00 96 1015.6
20260906055109 75 329 1.7 1.7 0.00 0.00 0.00 96 1015.6
20260906054610 75 352 0.9 0.9 0.00 0.00 0.00 96 1015.7
20260906054105 75 28 0.0 0.9 0.00 0.00 0.00 96 1015.6
20260906053601 75 336 0.9 1.7 0.00 0.00 0.00 96 1015.7
20260906053057 75 341 1.7 1.7 0.00 0.00 0.00 95 1015.6
20260906052552 75 354 1.7 1.7 0.00 0.00 0.00 95 1015.5
20260906052049 75 337 0.9 1.7 0.00 0.00 0.00 95 1015.6
20260906051545 75 334 1.7 1.7 0.00 0.00 0.00 95 1015.7
20260906051040 75 339 0.9 1.7 0.00 0.00 0.00 95 1015.7
20260906050535 75 351 0.9 1.7 0.00 0.00 0.00 95 1015.6
20260906050030 75 336 0.9 2.6 0.00 0.00 0.00 94 1015.8
20260906045528 75 329 1.7 1.7 0.00 0.00 0.00 94 1015.9
20260906045024 75 342 0.9 2.6 0.00 0.00 0.00 94 1015.8
20260906044519 75 341 0.9 1.7 0.00 0.00 0.00 94 1015.9
20260906044015 75 347 1.7 1.7 0.00 0.00 0.00 94 1016.2
20260906043510 75 342 1.7 2.6 0.00 0.00 0.00 94 1016.2
20260906043007 76 357 1.7 1.7 0.00 0.00 0.00 93 1016.0
20260906042505 75 341 1.7 1.7 0.00 0.00 0.00 93 1016.3
20260906042005 76 350 0.9 1.7 0.00 0.00 0.00 93 1016.1
20260906041502 76 341 0.9 0.9 0.00 0.00 0.00 93 1016.2
20260906041001 76 354 0.9 1.7 0.00 0.00 0.00 93 1016.2
20260906040456 76 342 1.7 2.6 0.00 0.00 0.00 94 1016.0
20260906035951 76 344 0.9 1.7 0.00 0.00 0.00 93 1016.2
20260906035447 76 336 0.9 1.7 0.00 0.00 0.00 93 1016.1
20260906034943 76 17 0.9 0.9 0.00 0.00 0.00 93 1016.1
20260906034442 76 349 0.9 1.7 0.00 0.00 0.00 93 1016.1
20260906033938 76 344 0.9 0.9 0.00 0.00 0.00 93 1016.0
20260906033438 76 343 0.9 1.7 0.00 0.00 0.00 92 1016.4
20260906032934 76 344 0.9 1.7 0.00 0.00 0.00 92 1016.3
20260906032431 76 330 1.7 1.7 0.00 0.00 0.00 91 1016.1
20260906031930 77 355 0.9 1.7 0.00 0.00 0.00 92 1016.3
20260906031426 77 329 0.9 0.9 0.00 0.00 0.00 92 1016.2
20260906030921 77 5 0.9 1.7 0.00 0.00 0.00 92 1016.2
20260906030415 77 331 0.9 1.7 0.00 0.00 0.00 92 1016.4
20260906025910 77 348 0.9 1.7 0.00 0.00 0.00 91 1016.4
20260906025404 77 344 1.7 1.7 0.00 0.00 0.00 91 1016.4
20260906024903 77 344 1.7 1.7 0.00 0.00 0.00 92 1016.2
20260906024402 77 341 1.7 2.6 0.00 0.00 0.00 91 1016.0
20260906023858 77 332 0.9 1.7 0.00 0.00 0.00 91 1015.7
20260906023355 77 333 0.9 1.7 0.00 0.00 0.00 91 1015.7
20260906022854 77 335 0.9 1.7 0.00 0.00 0.00 90 1015.7
20260906022349 77 15 0.0 0.9 0.00 0.00 0.00 90 1015.7
20260906021845 77 335 0.9 1.7 0.00 0.00 0.00 90 1015.6
20260906021344 77 351 0.9 1.7 0.00 0.00 0.00 90 1015.5
20260906020839 77 341 0.9 1.7 0.00 0.00 0.00 90 1015.6
20260906020338 77 341 1.7 1.7 0.00 0.00 0.00 90 1015.5
20260906015833 77 337 1.7 2.6 0.00 0.00 0.00 89 1015.7
20260906015332 77 336 1.7 1.7 0.00 0.00 0.00 89 1015.6
20260906014832 77 341 1.7 1.7 0.00 0.00 0.00 89 1015.6
20260906014327 77 341 1.7 1.7 0.00 0.00 0.00 88 1015.3
20260906013824 78 340 1.7 1.7 0.00 0.00 0.00 88 1015.5
20260906013319 78 332 1.7 1.7 0.00 0.00 0.00 88 1015.4
20260906012814 78 325 0.9 1.7 0.00 0.00 0.00 88 1015.3
20260906012314 77 341 1.7 2.6 0.00 0.00 0.00 88 1015.1
20260906011809 78 334 1.7 1.7 0.00 0.00 0.00 88 1015.4
20260906011309 78 340 0.9 2.6 0.00 0.00 0.00 88 1015.3
20260906010806 78 344 0.9 1.7 0.00 0.00 0.00 86 1015.3
20260906010301 79 0 0.9 1.7 0.00 0.00 0.00 87 1015.3
20260906005756 79 332 0.9 1.7 0.00 0.00 0.00 86 1015.0
20260906005255 79 339 0.9 1.7 0.00 0.00 0.00 86 1015.2
20260906004754 79 336 0.9 1.7 0.00 0.00 0.00 85 1014.8
20260906004249 79 327 1.7 1.7 0.00 0.00 0.00 85 1015.1
20260906003749 80 35 0.0 0.9 0.00 0.00 0.00 85 1014.8
20260906003245 79 334 0.9 1.7 0.00 0.00 0.00 85 1014.7
20260906002741 80 335 1.7 1.7 0.00 0.00 0.00 85 1014.6
20260906002240 80 334 1.7 1.7 0.00 0.00 0.00 85 1015.0
20260906001736 80 335 1.7 1.7 0.00 0.00 0.00 84 1015.0
20260906001230 80 14 1.7 1.7 0.00 0.00 0.00 84 1014.8
20260906000726 80 353 0.9 1.7 0.00 0.00 0.00 82 1014.6
20260906000227 81 345 0.9 1.7 0.00 0.00 0.00 82 1014.9
20260905235726 82 5 0.0 0.0 0.00 0.00 0.00 81 1015.0
20260905235221 82 31 0.9 0.9 0.00 0.00 0.00 79 1015.1
20260905234717 82 346 0.9 1.7 0.00 0.00 0.00 79 1015.0
20260905234212 83 319 0.9 0.9 0.00 0.00 0.00 79 1014.8
20260905233713 84 14 0.9 0.9 0.00 0.00 0.00 77 1014.9
20260905233212 84 155 0.0 0.9 0.00 0.00 0.00 76 1015.1
20260905232707 83 329 0.9 1.7 0.00 0.00 0.00 76 1015.3
20260905232202 84 336 0.9 0.9 0.00 0.00 0.00 75 1015.0
20260905231658 84 35 0.9 0.9 0.00 0.00 0.00 75 1014.6
20260905231154 84 6 0.0 0.9 0.00 0.00 0.00 76 1014.7
20260905230649 84 89 0.0 0.9 0.00 0.00 0.00 76 1014.5
20260905230147 84 68 0.0 0.0 0.00 0.00 0.00 74 1014.5
20260905225647 85 352 0.9 1.7 0.00 0.00 0.00 75 1014.6
20260905225142 85 116 0.0 1.7 0.00 0.00 0.00 74 1014.8
20260905224642 85 108 1.7 1.7 0.00 0.00 0.00 72 1014.7
20260905224141 85 16 0.0 1.7 0.00 0.00 0.00 70 1014.5
20260905223639 85 328 0.9 1.7 0.00 0.00 0.00 73 1014.7
20260905223135 85 330 1.7 1.7 0.00 0.00 0.00 73 1014.5
20260905222630 86 102 0.0 0.0 0.00 0.00 0.00 70 1014.6
20260905222125 85 330 0.9 0.9 0.00 0.00 0.00 72 1015.1
20260905221621 85 43 0.0 0.9 0.00 0.00 0.00 71 1015.1
20260905221118 86 343 0.9 1.7 0.00 0.00 0.00 69 1015.0
20260905220613 86 88 0.0 0.9 0.00 0.00 0.00 67 1015.3
20260905220109 86 149 0.0 0.9 0.00 0.00 0.00 67 1015.1
20260905215608 86 88 2.6 2.6 0.00 0.00 0.00 69 1015.2
20260905215104 86 117 1.7 3.5 0.00 0.00 0.00 69 1015.2
20260905214600 86 109 2.6 3.5 0.00 0.00 0.00 68 1015.5
20260905214100 87 354 1.7 2.6 0.00 0.00 0.00 67 1015.5
20260905213555 87 103 0.0 1.7 0.00 0.00 0.00 69 1015.5
20260905213051 86 117 0.9 1.7 0.00 0.00 0.00 70 1015.6
20260905212551 86 119 1.7 1.7 0.00 0.00 0.00 71 1015.6
20260905212050 86 113 0.9 2.6 0.00 0.00 0.00 71 1015.5
20260905211546 85 111 1.7 3.5 0.00 0.00 0.00 72 1015.5
20260905211041 85 108 2.6 6.1 0.00 0.00 0.00 74 1015.7
20260905210537 84 114 2.6 3.5 0.00 0.00 0.00 76 1015.4
20260905210032 84 97 1.7 1.7 0.00 0.00 0.00 76 1015.6
20260905205531 83 7 0.0 1.7 0.00 0.00 0.00 79 1015.7
20260905205030 83 113 1.7 2.6 0.00 0.00 0.00 77 1015.9
20260905204525 83 291 1.7 2.6 0.00 0.00 0.00 77 1015.5
20260905204021 83 59 1.7 2.6 0.00 0.00 0.00 78 1015.7
20260905203520 83 101 2.6 2.6 0.00 0.00 0.00 82 1015.9
20260905203016 83 312 2.6 3.5 0.00 0.00 0.00 79 1015.4
20260905202511 84 96 1.7 3.5 0.00 0.00 0.00 75 1015.5
20260905202006 85 316 1.7 1.7 0.00 0.00 0.00 72 1015.2
20260905201502 84 306 1.7 2.6 0.00 0.00 0.00 76 1015.2
20260905201001 83 358 0.9 3.5 0.00 0.00 0.00 78 1015.6
20260905200457 84 49 1.7 6.1 0.00 0.00 0.00 75 1015.7
20260905195955 85 320 5.2 7.0 0.00 0.00 0.00 75 1015.6
20260905195450 86 141 2.6 6.1 0.00 0.00 0.00 73 1015.9
20260905194946 93 82 5.2 6.1 0.00 0.00 0.00 64 1015.7
20260905194445 96 143 0.9 1.7 0.00 0.00 0.00 54 1015.2
20260905193940 98 179 0.9 1.7 0.00 0.00 0.00 53 1015.3
20260905193440 97 271 1.7 2.6 0.00 0.00 0.00 50 1015.2
20260905192935 96 219 1.7 2.6 0.00 0.00 0.00 53 1015.3
20260905192431 96 203 0.9 1.7 0.00 0.00 0.00 54 1015.4
20260905191926 95 238 2.6 3.5 0.00 0.00 0.00 56 1015.5
20260905191426 93 218 4.3 5.2 0.00 0.00 0.00 57 1015.4
20260905190920 92 220 3.5 5.2 0.00 0.00 0.00 57 1015.4
20260905190417 92 231 2.6 5.2 0.00 0.00 0.00 61 1015.6
20260905185916 94 210 1.7 3.5 0.00 0.00 0.00 60 1015.6
20260905185412 94 274 0.9 2.6 0.00 0.00 0.00 56 1015.9
20260905184910 93 245 0.9 2.6 0.00 0.00 0.00 57 1016.0
20260905184404 92 223 0.9 1.7 0.00 0.00 0.00 60 1015.8
20260905183903 91 221 1.7 1.7 0.00 0.00 0.00 64 1015.6
20260905183358 91 224 0.9 2.6 0.00 0.00 0.00 62 1015.8
20260905182853 92 281 0.9 1.7 0.00 0.00 0.00 61 1015.8
20260905182352 93 225 0.9 1.7 0.00 0.00 0.00 58 1016.0
20260905181849 93 23 0.9 1.7 0.00 0.00 0.00 60 1016.0
20260905181348 93 108 1.7 2.6 0.00 0.00 0.00 58 1015.9
20260905180847 92 106 3.5 3.5 0.00 0.00 0.00 66 1016.2
20260905180342 94 132 0.0 2.6 0.00 0.00 0.00 60 1016.3
20260905175837 93 98 0.9 5.2 0.00 0.00 0.00 59 1016.1
20260905175331 93 69 0.9 3.5 0.00 0.00 0.00 67 1016.2
20260905174826 93 90 3.5 7.0 0.00 0.00 0.00 64 1016.0
20260905174322 92 112 1.7 3.5 0.00 0.00 0.00 65 1016.0
20260905173818 92 100 3.5 5.2 0.00 0.00 0.00 62 1016.4
20260905173314 92 97 3.5 3.5 0.00 0.00 0.00 63 1016.2
20260905172814 92 100 3.5 3.5 0.00 0.00 0.00 63 1016.4
20260905172312 91 112 2.6 3.5 0.00 0.00 0.00 65 1016.5
20260905171808 91 105 3.5 3.5 0.00 0.00 0.00 71 1016.6
20260905171305 91 112 2.6 2.6 0.00 0.00 0.00 73 1016.5
20260905170801 91 104 2.6 3.5 0.00 0.00 0.00 70 1016.6
20260905170256 91 117 1.7 2.6 0.00 0.00 0.00 74 1016.6
20260905165755 90 115 1.7 1.7 0.00 0.00 0.00 72 1016.6
20260905165251 90 112 1.7 1.7 0.00 0.00 0.00 73 1016.7
20260905164752 90 114 1.7 2.6 0.00 0.00 0.00 74 1016.8
20260905164252 90 118 1.7 2.6 0.00 0.00 0.00 74 1016.8
20260905163747 89 119 2.6 2.6 0.00 0.00 0.00 69 1017.2
20260905163244 89 114 1.7 2.6 0.00 0.00 0.00 70 1017.1
20260905162739 89 113 1.7 2.6 0.00 0.00 0.00 72 1017.0
20260905162239 89 110 1.7 2.6 0.00 0.00 0.00 75 1017.2
20260905161734 89 109 2.6 2.6 0.00 0.00 0.00 73 1017.2
20260905161232 88 114 1.7 2.6 0.00 0.00 0.00 73 1017.1
20260905160731 88 109 1.7 2.6 0.00 0.00 0.00 74 1017.2
20260905160226 88 107 1.7 2.6 0.00 0.00 0.00 76 1017.2
20260905155726 89 144 0.9 0.9 0.00 0.00 0.00 76 1017.4
20260905155225 89 144 0.0 0.9 0.00 0.00 0.00 76 1017.5
20260905154719 88 132 0.0 0.9 0.00 0.00 0.00 77 1017.3
20260905154215 87 136 0.9 2.6 0.00 0.00 0.00 79 1017.5
20260905153710 87 132 1.7 1.7 0.00 0.00 0.00 79 1017.5
20260905153206 87 142 0.9 0.9 0.00 0.00 0.00 78 1017.4
20260905152701 87 124 1.7 1.7 0.00 0.00 0.00 79 1017.5
20260905152155 87 122 0.9 1.7 0.00 0.00 0.00 79 1017.6
20260905151650 89 144 0.9 1.7 0.00 0.00 0.00 76 1017.6
20260905151146 90 164 0.0 0.0 0.00 0.00 0.00 74 1017.6
20260905150641 89 187 0.9 0.9 0.00 0.00 0.00 75 1017.7
20260905150139 88 189 0.9 1.7 0.00 0.00 0.00 76 1017.8
20260905145637 87 200 1.7 1.7 0.00 0.00 0.00 77 1017.6
20260905145137 88 207 1.7 1.7 0.00 0.00 0.00 76 1017.9
20260905144632 88 218 1.7 1.7 0.00 0.00 0.00 75 1017.9
20260905144131 88 159 0.9 1.7 0.00 0.00 0.00 78 1018.0
20260905143625 86 139 0.9 0.9 0.00 0.00 0.00 78 1017.9
20260905143120 86 130 0.9 0.9 0.00 0.00 0.00 79 1018.0
20260905142619 85 136 0.9 2.6 0.00 0.00 0.00 79 1018.0
20260905142118 85 137 1.7 1.7 0.00 0.00 0.00 79 1018.0
20260905141618 87 137 0.9 0.9 0.00 0.00 0.00 75 1017.8
20260905141115 87 142 0.0 0.9 0.00 0.00 0.00 74 1018.0
20260905140615 85 142 0.9 0.9 0.00 0.00 0.00 77 1018.0
20260905140115 85 121 0.9 0.9 0.00 0.00 0.00 79 1018.0
20260905135610 84 126 0.9 1.7 0.00 0.00 0.00 79 1018.0
20260905135105 85 138 0.9 0.9 0.00 0.00 0.00 79 1018.0
20260905134600 85 149 0.9 0.9 0.00 0.00 0.00 78 1018.0
20260905134058 85 146 0.9 0.9 0.00 0.00 0.00 78 1018.0
20260905133555 87 138 0.9 1.7 0.00 0.00 0.00 77 1018.1
20260905133054 87 160 0.9 0.9 0.00 0.00 0.00 77 1018.3
20260905132554 87 169 0.0 0.9 0.00 0.00 0.00 78 1018.5
20260905132049 87 175 0.0 0.9 0.00 0.00 0.00 78 1018.3
20260905131544 85 162 0.9 0.9 0.00 0.00 0.00 81 1018.5
20260905131039 85 133 0.0 0.9 0.00 0.00 0.00 81 1018.3
20260905130538 85 175 0.9 0.9 0.00 0.00 0.00 81 1018.1
20260905130034 85 145 0.9 1.7 0.00 0.00 0.00 81 1018.4
20260905125533 85 166 0.9 0.9 0.00 0.00 0.00 80 1018.3
20260905125029 86 165 0.0 0.9 0.00 0.00 0.00 80 1018.3